Location: Aghk�ilisa
(40.0189°N, 45.0097°E)
Time: 07:09:00
(UTC+00:00)

Cosmos 468 Rocket - Pass Details

Date: 21 October 2019
Orbit: 745 x 779 km, 74.0° (Epoch: 13 November)

Event Time Altitude Azimuth Distance (km) Brightness Sun altitude
Rises 15:57:48 0° 189° (S) 3,241 7.3 -20.9°
Reaches altitude 10° 16:00:11 10° 187° (S) 2,314 6.5 -21.3°
Maximum altitude 16:05:23 67° 106° (ESE) 838 3.9 -22.3°
Enters shadow 16:07:45 32° 34° (NNE) 1,291 4.9 -22.8°
